This demonstration page uses our WeatherBlox Daily Observations layout. Learn more.

Left ArrowRight Arrow

Hourly Observations for April 19, 2021

Temp ( °F °C ) Dew Point ( °F °C ) Humidity (%) Winds ( mph kmh ) Pressure ( in mb ) Visibility ( mi km ) Precip ( " mm )
12:59 am 00:59 Clear 54 12.2 43 6.1 67 67 ESE 6 9 29.89 1012 10 16 0.00 0.00
1:59 am 01:59 Clear 53 11.7 44 6.7 72 72 ESE 6 9 29.88 1012 10 16 0.00 0.00
2:59 am 02:59 Clear 53 11.7 44 6.7 72 72 VRB 3 6 29.87 1012 10 16 0.00 0.00
3:59 am 03:59 Clear 53 11.7 46 7.8 77 77 SE 6 9 29.86 1011 10 16 0.00 0.00
4:59 am 04:59 Clear 53 11.7 46 7.8 77 77 E 3 6 29.84 1011 10 16 0.00 0.00
5:59 am 05:59 Mostly Clear 51 10.6 47 8.3 86 86 Calm 29.83 1010 10 16 0.00 0.00
6:59 am 06:59 Mostly Sunny 53 11.7 48 8.9 83 83 N 8 13 29.85 1011 9 14 0.00 0.00
7:59 am 07:59 Mostly Cloudy 61 16.1 53 11.7 75 75 NE 8 13 29.84 1011 10 16 0.00 0.00
8:59 am 08:59 Mostly Cloudy 61 16.1 53 11.7 75 75 E 8 13 29.83 1010 10 16 0.00 0.00
9:59 am 09:59 Mostly Cloudy 65 18.3 54 12.2 68 68 NE 3 6 29.84 1011 10 16 0.00 0.00
10:59 am 10:59 Mostly Cloudy 67 19.4 54 12.2 63 63 ENE 8 13 29.83 1010 10 16 0.00 0.00
11:59 am 11:59 Mostly Cloudy 63 17.2 51 10.6 65 65 ENE 10 17 29.82 1010 10 16 0.00 0.00
12:38 pm 12:38 Windy with Storms Likely 57 13.9 51 10.6 81 81 N 24 39 29.81 1009 8 13 0.00 0.00
12:48 pm 12:48 Windy with Storms Likely 56 13.3 51 10.6 84 84 N 21 33 29.84 1010 6 10 0.00 0.00
12:59 pm 12:59 Cloudy with Thunderstorms 55 12.8 50 10 83 83 N 16 26 29.86 1011 2 3 0.06 1.52
1:01 pm 13:01 Cloudy with Thunderstorms 55 12.8 50 10 83 83 N 15 24 29.85 1011 2 2 0.04 1.02
1:04 pm 13:04 Cloudy with Thunderstorms 54 12.2 51 10.6 90 90 N 17 28 29.85 1011 2 2 0.10 2.54
1:13 pm 13:13 Cloudy with Light Rain 57 13.9 52 11.1 83 83 N 18 30 29.85 1011 6 10 0.13 3.30
1:23 pm 13:23 Windy with Storms Likely 57 13.9 52 11.1 83 83 N 20 31 29.85 1011 8 13 0.13 3.30
1:30 pm 13:30 Cloudy 57 13.9 51 10.6 81 81 N 18 30 29.84 1010 10 16 0.13 3.30
1:59 pm 13:59 Cloudy with Thunderstorms 56 13.3 49 9.4 77 77 N 21 33 29.83 1010 10 16 0.13 3.30
2:16 pm 14:16 Cloudy with Thunderstorms 55 12.8 50 10 83 83 N 18 30 29.86 1011 1 2 0.16 4.06
2:21 pm 14:21 Cloudy with Rain 55 12.8 50 10 83 83 NNW 21 33 29.87 1012 3 5 0.17 4.32
2:59 pm 14:59 Cloudy with Light Rain 55 12.8 50 10 83 83 N 17 28 29.86 1011 6 10 0.17 4.32
3:07 pm 15:07 Cloudy 55 12.8 50 10 83 83 N 20 31 29.86 1011 10 16 0.00 0.00
3:59 pm 15:59 Cloudy 55 12.8 48 8.9 77 77 N 17 28 29.86 1011 10 16 0.00 0.00
4:59 pm 16:59 Cloudy with Light Rain 54 12.2 49 9.4 83 83 ENE 14 22 29.83 1010 4 6 0.07 1.78
5:59 pm 17:59 Mostly Cloudy 56 13.3 49 9.4 77 77 NNE 10 17 29.87 1011 10 16 0.00 0.00
6:59 pm 18:59 Mostly Cloudy 55 12.8 48 8.9 77 77 N 3 6 29.88 1012 10 16 0.00 0.00
7:28 pm 19:28 Mostly Cloudy 53 11.7 49 9.4 86 86 Calm 29.89 1012 10 16 0.00 0.00
7:59 pm 19:59 Mostly Cloudy 53 11.7 48 8.9 83 83 N 5 7 29.90 1013 10 16 0.00 0.00
8:12 pm 20:12 Partly Cloudy 54 12.2 48 8.9 80 80 NW 8 13 29.91 1013 10 16 0.00 0.00
8:59 pm 20:59 Mostly Clear 54 12.2 48 8.9 80 80 NW 7 11 29.93 1014 10 16 0.00 0.00
9:59 pm 21:59 Mostly Clear 52 11.1 47 8.3 83 83 NW 5 7 29.96 1015 10 16 0.00 0.00
10:59 pm 22:59 Mostly Clear 49 9.4 46 7.8 90 90 Calm 29.96 1015 8 13 0.00 0.00
11:59 pm 23:59 Mostly Clear 47 8.3 45 7.2 93 93 Calm 29.98 1015 7 11 0.00 0.00

Powered by AerisWeather